User: anonymous   Login
Location: Unspecified
(0.0000°N, 0.0000°E)
Time: 20:26:48
(UTC+00:00)
Language:

Tiros 1 despin weight - Orbit

View from above orbital plane
View from above orbital plane
View from above satellite
View from above satellite

Ground track
Ground track

The orbit data is extracted from the following two-line orbital elements,

1   115U 60002D   20196.12786439 -.00000088  00000-0  16762-4 0  9996
2   115  48.1659 145.9645 0034823   4.9618 355.1633 14.83589836216936
Epoch (UTC): 14 July 2020 03:04:07
Eccentricity: 0.0034823
inclination: 48.1659°
perigee height: 593 km
apogee height: 642 km
right ascension of ascending node: 145.9645°
argument of perigee: 4.9618°
revolutions per day: 14.83589836
mean anomaly at epoch: 355.1633°
orbit number at epoch: 21693

The dashed part of the orbit path shows where the satellite is in the earth's shadow,  

DLR